Tracking 19564 objects as of 19-Mar-2019
HD Live streaming from Space Station
objects crossing your sky now

INNOSAT 2

Track INNOSAT 2 now!
10-day predictions


NORAD ID: 43738
Int'l Code: 2018-096V
Perigee: 472.4 km
Apogee: 504.5 km
Inclination: 97.5 °
Period: 94.2 minutes
Semi major axis: 6859 km
RCS: Unknown
Launch date: November 29, 2018
Source: (TBD)
Launch site: SRIHARIKOTA (SRI)
aabbcc
Your satellite tracking list
Your tracking list is empty




NASA's NSSDC Master Catalog

Two Line Element Set (TLE):
1 43738U 18096V   19077.92434151 +.00002980 +00000-0 +11055-3 0  9996
2 43738 097.4690 148.2598 0023396 308.7015 051.2132 15.28165979016763
Source of the keplerian elements: AFSPC